This is the latest recevied weather packets stored in our database for station/object PA1CD-13. If no packets are shown the sender has not sent any weather packets the latest 1 day(s).
| Time | Temp. | Humidity | Pressure | Rain* | Wind** | Luminosity | Snow |
|---|---|---|---|---|---|---|---|
| 1778045285 | 10° C | 1% | 1007.9 hPa | 0 mm | - | 107 W/m² | - |
| 1778045046 | 10° C | 1% | 1007.9 hPa | 0 mm | - | 91 W/m² | - |
| 1778044926 | 10° C | 1% | 1007.9 hPa | 0 mm | - | 76 W/m² | - |
| 1778044565 | 10° C | 1% | 1007.9 hPa | 0 mm | - | 62 W/m² | - |
| 1778044421 | 10° C | 1% | 1007.8 hPa | 0 mm | - | 67 W/m² | - |
| 1778044292 | 10° C | 1% | 1007.9 hPa | 0 mm | - | 67 W/m² | - |
| 1778044172 | 10° C | 1% | 1007.8 hPa | 0 mm | - | 65 W/m² | - |
| 1778044051 | 10° C | 1% | 1007.8 hPa | 0 mm | - | 65 W/m² | - |
| 1778043932 | 10° C | 1% | 1007.9 hPa | 0 mm | - | 53 W/m² | - |
| 1778043325 | 10° C | 1% | 1007.8 hPa | 0 mm | - | 56 W/m² | - |
| 1778043205 | 10° C | 1% | 1008 hPa | 0 mm | - | 49 W/m² | - |
| 1778043085 | 10° C | 1% | 1008 hPa | 0 mm | - | 48 W/m² | - |
| 1778042965 | 10° C | 1% | 1008.1 hPa | 0 mm | - | 49 W/m² | - |
| 1778042845 | 10° C | 1% | 1008 hPa | 0 mm | - | 44 W/m² | - |
| 1778042726 | 10° C | 1% | 1008 hPa | 0 mm | - | 44 W/m² | - |
| 1778042606 | 10° C | 1% | 1007.9 hPa | 0 mm | - | 39 W/m² | - |
| 1778042485 | 10° C | 1% | 1007.9 hPa | 0 mm | - | - | - |
| 1778042365 | 10° C | 1% | 1007.8 hPa | 0 mm | - | 28 W/m² | - |
| 1778042004 | 10° C | 1% | 1007.8 hPa | 0 mm | - | 28 W/m² | - |
| 1778041885 | 10° C | 1% | 1007.8 hPa | 0 mm | - | 28 W/m² | - |
| 1778041764 | 10° C | 1% | 1007.7 hPa | 0 mm | - | 21 W/m² | - |
| 1778041406 | 10° C | 1% | 1007.8 hPa | 0 mm | - | 11 W/m² | - |
| 1778041286 | 10° C | 1% | 1007.7 hPa | 0 mm | - | 11 W/m² | - |
| 1778041164 | 10° C | 1% | 1007.7 hPa | 0 mm | - | 11 W/m² | - |
| 1778041046 | 10° C | 1% | 1007.7 hPa | 0 mm | - | 9 W/m² | - |
* Rain latest hour (hover to see other rain measurements)
** Current wind speed in m/s (hover to see current wind gust speed)